User: anonymous   Login
Location: Monreal
(44.6700°N, 73.7400°W)
Time: 15:59:57
(UTC-05:00)
Language:

CUTE-I - Orbit

View from above orbital plane
View from above orbital plane
View from above satellite
View from above satellite

Ground track
Ground track

The orbit data is extracted from the following two-line orbital elements,

1 27844U 03031E   17344.96091859 +.00000055 +00000-0 +44611-4 0  9998
2 27844 098.6888 351.3889 0009574 190.3300 169.7683 14.22081089749401
Epoch (UTC): 10 December 2017 23:03:43
Eccentricity: 0.0009574
inclination: 98.6888°
perigee height: 811 km
apogee height: 825 km
right ascension of ascending node: 351.3889°
argument of perigee: 190.3300°
revolutions per day: 14.22081089
mean anomaly at epoch: 169.7683°
orbit number at epoch: 74940

The dashed part of the orbit path shows where the satellite is in the earth's shadow,  

DLR